Location: Unspecified
(0.0000°N, 0.0000°E)
Time: 03:34:58
(UTC+00:00)

N. Korean satellite - Pass Details

Date: 17 October 2017
Orbit: 461 x 513 km, 97.2° (Epoch: 15 December)

Event Time Altitude Azimuth Distance (km) Brightness Sun altitude
Rises 18:53:53 0° 186° (S) 2,596 10.5 -16.9°
Reaches altitude 10° 18:56:10 10° 198° (SSW) 1,701 9.7 -17.5°
Maximum altitude 18:59:22 29° 258° (WSW) 932 8.7 -18.3°
Drops below altitude 10° 19:02:31 10° 320° (NW) 1,667 9.6 -19.0°
Sets 19:04:44 0° 332° (NNW) 2,533 10.4 -19.6°
